date,time,SUV Intensity [MED/Hr],UV Index,Daily total [MED],Since Last [MED]
04/07/2022,00:10:00,0.000,0.0,0.0,0.0
04/07/2022,00:10:59,0.001,0.0,0.0,0.0
04/07/2022,00:11:59,0.000,0.0,0.0,0.0
04/07/2022,00:12:59,-0.001,0.0,0.0,0.0
04/07/2022,00:13:59,0.000,0.0,0.0,0.0
04/07/2022,00:14:59,-0.001,0.0,0.0,0.0
04/07/2022,00:15:59,0.000,0.0,0.0,0.0
04/07/2022,00:17:01,-0.001,0.0,0.0,0.0
04/07/2022,00:17:59,0.000,0.0,0.0,0.0
04/07/2022,00:18:59,0.000,0.0,0.0,0.0
04/07/2022,00:19:59,0.001,0.0,0.0,0.0
04/07/2022,00:20:59,0.001,0.0,0.0,0.0
04/07/2022,00:21:59,0.000,0.0,0.0,0.0
04/07/2022,00:22:59,0.000,0.0,0.0,0.0
04/07/2022,00:24:00,0.001,0.0,0.0,0.0
04/07/2022,00:25:07,-0.000,0.0,0.0,0.0
04/07/2022,00:25:59,0.000,0.0,0.0,0.0
04/07/2022,00:26:59,-0.001,0.0,0.0,0.0
04/07/2022,00:27:59,-0.000,0.0,0.0,0.0
04/07/2022,00:29:00,0.000,0.0,0.0,0.0
04/07/2022,00:29:59,-0.001,0.0,0.0,0.0
04/07/2022,00:30:59,-0.001,0.0,0.0,0.0
04/07/2022,00:31:59,0.000,0.0,0.0,0.0
04/07/2022,00:32:59,0.000,0.0,0.0,0.0
04/07/2022,00:33:59,0.000,0.0,0.0,0.0
04/07/2022,00:34:59,0.001,0.0,0.0,0.0
04/07/2022,00:35:59,-0.000,0.0,0.0,0.0
04/07/2022,00:36:59,-0.000,0.0,0.0,0.0
04/07/2022,00:37:59,0.001,0.0,0.0,0.0
04/07/2022,00:38:59,0.001,0.0,0.0,0.0
04/07/2022,00:39:59,0.002,0.0,0.0,0.0
04/07/2022,00:41:08,0.000,0.0,0.0,0.0
04/07/2022,00:41:59,0.000,0.0,0.0,0.0
04/07/2022,00:42:59,0.000,0.0,0.0,0.0
04/07/2022,00:43:59,0.000,0.0,0.0,0.0
04/07/2022,00:44:59,0.001,0.0,0.0,0.0
04/07/2022,00:45:59,0.000,0.0,0.0,0.0
04/07/2022,00:46:59,0.000,0.0,0.0,0.0
04/07/2022,00:47:52,0.001,0.0,0.0,0.0
04/07/2022,00:49:00,0.002,0.0,0.0,0.0
04/07/2022,00:49:59,-0.001,0.0,0.0,0.0
04/07/2022,00:51:07,0.001,0.0,0.0,0.0
04/07/2022,00:51:59,0.001,0.0,0.0,0.0
04/07/2022,00:52:59,0.001,0.0,0.0,0.0
04/07/2022,00:54:07,0.001,0.0,0.0,0.0
04/07/2022,00:54:59,0.000,0.0,0.0,0.0
04/07/2022,00:55:59,0.001,0.0,0.0,0.0
04/07/2022,00:56:59,-0.000,0.0,0.0,0.0
04/07/2022,00:57:59,0.000,0.0,0.0,0.0
04/07/2022,00:59:00,0.001,0.0,0.0,0.0
04/07/2022,01:00:07,0.000,0.0,0.0,0.0
04/07/2022,01:00:59,0.000,0.0,0.0,0.0
04/07/2022,01:01:59,0.001,0.0,0.0,0.0
04/07/2022,01:02:59,0.001,0.0,0.0,0.0
04/07/2022,01:04:00,0.001,0.0,0.0,0.0
04/07/2022,01:04:59,0.001,0.0,0.0,0.0
04/07/2022,01:05:59,0.001,0.0,0.0,0.0
04/07/2022,01:07:07,0.001,0.0,0.0,0.0
04/07/2022,01:09:00,0.001,0.0,0.0,0.0
04/07/2022,01:10:07,0.001,0.0,0.0,0.0
04/07/2022,01:10:59,0.001,0.0,0.0,0.0
04/07/2022,01:11:59,0.000,0.0,0.0,0.0
04/07/2022,01:12:59,0.001,0.0,0.0,0.0
04/07/2022,01:13:59,0.000,0.0,0.0,0.0
04/07/2022,01:14:59,0.000,0.0,0.0,0.0
04/07/2022,01:15:59,0.002,0.0,0.0,0.0
04/07/2022,01:17:00,0.000,0.0,0.0,0.0
04/07/2022,01:17:59,0.000,0.0,0.0,0.0
04/07/2022,01:18:59,-0.000,0.0,0.0,0.0
04/07/2022,01:20:09,0.001,0.0,0.0,0.0
04/07/2022,01:20:58,0.000,0.0,0.0,0.0
04/07/2022,01:21:59,-0.001,0.0,0.0,0.0
04/07/2022,01:23:00,0.001,0.0,0.0,0.0
04/07/2022,01:23:59,0.001,0.0,0.0,0.0
04/07/2022,01:24:59,-0.000,0.0,0.0,0.0
04/07/2022,01:25:59,0.001,0.0,0.0,0.0
04/07/2022,01:26:59,0.001,0.0,0.0,0.0
04/07/2022,01:27:59,0.000,0.0,0.0,0.0
04/07/2022,01:28:59,0.000,0.0,0.0,0.0
04/07/2022,01:29:59,0.002,0.0,0.0,0.0
04/07/2022,01:31:00,0.001,0.0,0.0,0.0
04/07/2022,01:31:59,0.001,0.0,0.0,0.0
04/07/2022,01:32:59,0.001,0.0,0.0,0.0
04/07/2022,01:33:47,0.001,0.0,0.0,0.0
04/07/2022,01:35:00,-0.000,0.0,0.0,0.0
04/07/2022,01:36:08,0.001,0.0,0.0,0.0
04/07/2022,01:36:59,0.001,0.0,0.0,0.0
04/07/2022,01:38:00,0.002,0.0,0.0,0.0
04/07/2022,01:39:00,-0.000,0.0,0.0,0.0
04/07/2022,01:40:00,0.001,0.0,0.0,0.0
04/07/2022,01:40:59,0.001,0.0,0.0,0.0
04/07/2022,01:42:00,0.001,0.0,0.0,0.0
04/07/2022,01:42:59,0.001,0.0,0.0,0.0
04/07/2022,01:44:00,0.001,0.0,0.0,0.0
04/07/2022,01:45:00,0.001,0.0,0.0,0.0
04/07/2022,01:46:07,0.000,0.0,0.0,0.0
04/07/2022,01:46:59,0.002,0.0,0.0,0.0
04/07/2022,01:48:00,0.001,0.0,0.0,0.0
04/07/2022,01:48:59,0.002,0.0,0.0,0.0
04/07/2022,01:49:59,0.001,0.0,0.0,0.0
04/07/2022,01:50:59,0.001,0.0,0.0,0.0
04/07/2022,01:51:59,0.001,0.0,0.0,0.0
04/07/2022,01:52:59,-0.000,0.0,0.0,0.0
04/07/2022,01:53:59,0.001,0.0,0.0,0.0
04/07/2022,01:55:00,0.001,0.0,0.0,0.0
04/07/2022,01:55:59,0.001,0.0,0.0,0.0
04/07/2022,01:56:59,0.001,0.0,0.0,0.0
04/07/2022,01:57:59,0.001,0.0,0.0,0.0
04/07/2022,01:59:08,0.002,0.0,0.0,0.0
04/07/2022,01:59:59,0.001,0.0,0.0,0.0
04/07/2022,02:01:07,0.002,0.0,0.0,0.0
04/07/2022,02:02:08,-0.001,0.0,0.0,0.0
04/07/2022,02:02:58,-0.000,0.0,0.0,0.0
04/07/2022,02:03:59,0.002,0.0,0.0,0.0
04/07/2022,02:04:59,0.001,0.0,0.0,0.0
04/07/2022,02:05:59,0.001,0.0,0.0,0.0
04/07/2022,02:06:59,0.001,0.0,0.0,0.0
04/07/2022,02:07:59,0.001,0.0,0.0,0.0
04/07/2022,02:09:00,0.001,0.0,0.0,0.0
04/07/2022,02:09:59,0.002,0.0,0.0,0.0
04/07/2022,02:10:59,0.001,0.0,0.0,0.0
04/07/2022,02:11:59,0.001,0.0,0.0,0.0
04/07/2022,02:12:59,0.001,0.0,0.0,0.0
04/07/2022,02:14:00,0.001,0.0,0.0,0.0
04/07/2022,02:15:07,0.001,0.0,0.0,0.0
04/07/2022,02:15:59,0.001,0.0,0.0,0.0
04/07/2022,02:17:00,0.001,0.0,0.0,0.0
04/07/2022,02:17:59,0.001,0.0,0.0,0.0
04/07/2022,02:18:59,0.002,0.0,0.0,0.0
04/07/2022,02:19:59,-0.001,0.0,0.0,0.0
04/07/2022,02:20:59,0.001,0.0,0.0,0.0
04/07/2022,02:21:59,0.001,0.0,0.0,0.0
04/07/2022,02:23:00,0.001,0.0,0.0,0.0
04/07/2022,02:24:00,0.001,0.0,0.0,0.0
04/07/2022,02:25:00,0.001,0.0,0.0,0.0
04/07/2022,02:25:59,-0.000,0.0,0.0,0.0
04/07/2022,02:27:00,0.001,0.0,0.0,0.0
04/07/2022,02:28:07,0.001,0.0,0.0,0.0
04/07/2022,02:28:59,0.001,0.0,0.0,0.0
04/07/2022,02:30:08,0.001,0.0,0.0,0.0
04/07/2022,02:31:07,0.001,0.0,0.0,0.0
04/07/2022,02:31:59,0.002,0.0,0.0,0.0
04/07/2022,02:33:00,0.001,0.0,0.0,0.0
04/07/2022,02:34:01,0.000,0.0,0.0,0.0
04/07/2022,02:34:59,0.000,0.0,0.0,0.0
04/07/2022,02:35:59,0.001,0.0,0.0,0.0
04/07/2022,02:36:59,0.002,0.0,0.0,0.0
04/07/2022,02:38:01,0.001,0.0,0.0,0.0
04/07/2022,02:38:59,0.001,0.0,0.0,0.0
04/07/2022,02:39:59,0.001,0.0,0.0,0.0
04/07/2022,02:40:59,0.002,0.0,0.0,0.0
04/07/2022,02:42:00,0.001,0.0,0.0,0.0
04/07/2022,02:42:59,0.000,0.0,0.0,0.0
04/07/2022,02:44:08,0.001,0.0,0.0,0.0
04/07/2022,02:44:59,0.000,0.0,0.0,0.0
04/07/2022,02:46:00,0.001,0.0,0.0,0.0
04/07/2022,02:46:59,-0.000,0.0,0.0,0.0
04/07/2022,02:47:59,0.001,0.0,0.0,0.0
04/07/2022,02:48:59,0.001,0.0,0.0,0.0
04/07/2022,02:49:59,0.002,0.0,0.0,0.0
04/07/2022,02:50:59,0.002,0.0,0.0,0.0
04/07/2022,02:51:59,0.001,0.0,0.0,0.0
04/07/2022,02:53:00,0.001,0.0,0.0,0.0
04/07/2022,02:54:00,0.001,0.0,0.0,0.0
04/07/2022,02:54:59,0.000,0.0,0.0,0.0
04/07/2022,02:55:59,0.001,0.0,0.0,0.0
04/07/2022,02:57:08,0.001,0.0,0.0,0.0
04/07/2022,02:59:00,0.000,0.0,0.0,0.0
04/07/2022,02:59:59,0.001,0.0,0.0,0.0
04/07/2022,03:00:59,0.001,0.0,0.0,0.0
04/07/2022,03:02:00,0.001,0.0,0.0,0.0
04/07/2022,03:02:59,0.001,0.0,0.0,0.0
04/07/2022,03:04:00,0.001,0.0,0.0,0.0
04/07/2022,03:04:59,0.001,0.0,0.0,0.0
04/07/2022,03:05:59,0.000,0.0,0.0,0.0
04/07/2022,03:07:08,0.001,0.0,0.0,0.0
04/07/2022,03:07:59,0.000,0.0,0.0,0.0
04/07/2022,03:09:07,0.001,0.0,0.0,0.0
04/07/2022,03:10:08,0.001,0.0,0.0,0.0
04/07/2022,03:10:59,0.001,0.0,0.0,0.0
04/07/2022,03:12:00,0.001,0.0,0.0,0.0
04/07/2022,03:12:59,0.000,0.0,0.0,0.0
04/07/2022,03:13:59,0.001,0.0,0.0,0.0
04/07/2022,03:15:07,-0.000,0.0,0.0,0.0
04/07/2022,03:15:59,0.001,0.0,0.0,0.0
04/07/2022,03:17:00,0.001,0.0,0.0,0.0
04/07/2022,03:17:59,0.002,0.0,0.0,0.0
04/07/2022,03:19:00,0.001,0.0,0.0,0.0
04/07/2022,03:19:59,0.001,0.0,0.0,0.0
04/07/2022,03:21:00,0.002,0.0,0.0,0.0
04/07/2022,03:21:59,0.001,0.0,0.0,0.0
04/07/2022,03:23:08,0.001,0.0,0.0,0.0
04/07/2022,03:23:59,0.001,0.0,0.0,0.0
04/07/2022,03:25:00,0.001,0.0,0.0,0.0
04/07/2022,03:25:59,0.000,0.0,0.0,0.0
04/07/2022,03:27:00,0.002,0.0,0.0,0.0
04/07/2022,03:27:59,0.001,0.0,0.0,0.0
04/07/2022,03:29:09,0.003,0.0,0.0,0.0
04/07/2022,03:31:00,0.000,0.0,0.0,0.0
04/07/2022,03:32:00,0.000,0.0,0.0,0.0
04/07/2022,03:33:00,0.001,0.0,0.0,0.0
04/07/2022,03:34:00,0.000,0.0,0.0,0.0
04/07/2022,03:34:59,0.000,0.0,0.0,0.0
04/07/2022,03:36:08,0.001,0.0,0.0,0.0
04/07/2022,03:36:59,0.002,0.0,0.0,0.0
04/07/2022,03:37:59,0.001,0.0,0.0,0.0
04/07/2022,03:39:00,0.001,0.0,0.0,0.0
04/07/2022,03:39:59,0.002,0.0,0.0,0.0
04/07/2022,03:40:59,0.000,0.0,0.0,0.0
04/07/2022,03:41:59,0.001,0.0,0.0,0.0
04/07/2022,03:43:00,0.001,0.0,0.0,0.0
04/07/2022,03:43:59,0.001,0.0,0.0,0.0
04/07/2022,03:45:00,0.001,0.0,0.0,0.0
04/07/2022,03:45:59,0.000,0.0,0.0,0.0
04/07/2022,03:46:59,0.002,0.0,0.0,0.0
04/07/2022,03:47:59,0.002,0.0,0.0,0.0
04/07/2022,03:49:10,0.001,0.0,0.0,0.0
04/07/2022,03:49:58,0.001,0.0,0.0,0.0
04/07/2022,03:51:00,0.003,0.0,0.0,0.0
04/07/2022,03:52:00,0.001,0.0,0.0,0.0
04/07/2022,03:52:59,0.001,0.0,0.0,0.0
04/07/2022,03:54:00,0.002,0.0,0.0,0.0
04/07/2022,03:54:59,0.002,0.0,0.0,0.0
04/07/2022,03:56:00,0.003,0.0,0.0,0.0
04/07/2022,03:56:59,0.002,0.0,0.0,0.0
04/07/2022,03:57:59,0.002,0.0,0.0,0.0
04/07/2022,03:58:59,0.002,0.0,0.0,0.0
04/07/2022,04:00:00,0.002,0.0,0.0,0.0
04/07/2022,04:00:59,0.002,0.0,0.0,0.0
04/07/2022,04:02:07,0.002,0.0,0.0,0.0
04/07/2022,04:02:59,0.002,0.0,0.0,0.0
04/07/2022,04:04:00,0.003,0.0,0.0,0.0
04/07/2022,04:04:59,0.003,0.0,0.0,0.0
04/07/2022,04:06:00,0.003,0.0,0.0,0.0
04/07/2022,04:06:59,0.003,0.0,0.0,0.0
04/07/2022,04:07:59,0.003,0.0,0.0,0.0
04/07/2022,04:08:59,0.004,0.0,0.0,0.0
04/07/2022,04:10:00,0.003,0.0,0.0,0.0
04/07/2022,04:11:00,0.004,0.0,0.0,0.0
04/07/2022,04:12:16,0.004,0.0,0.0,0.0
04/07/2022,04:14:00,0.004,0.0,0.0,0.0
04/07/2022,04:15:08,0.005,0.0,0.0,0.0
04/07/2022,04:15:59,0.005,0.0,0.0,0.0
04/07/2022,04:16:59,0.003,0.0,0.0,0.0
04/07/2022,04:18:08,0.005,0.0,0.0,0.0
04/07/2022,04:18:59,0.004,0.0,0.0,0.0
04/07/2022,04:20:00,0.004,0.0,0.0,0.0
04/07/2022,04:20:59,0.005,0.0,0.0,0.0
04/07/2022,04:22:00,0.005,0.0,0.0,0.0
04/07/2022,04:22:59,0.005,0.0,0.0,0.0
04/07/2022,04:24:00,0.006,0.0,0.0,0.0
04/07/2022,04:25:00,0.006,0.0,0.0,0.0
04/07/2022,04:25:59,0.005,0.0,0.0,0.0
04/07/2022,04:27:00,0.006,0.0,0.0,0.0
04/07/2022,04:28:07,0.006,0.0,0.0,0.0
04/07/2022,04:29:00,0.006,0.0,0.0,0.0
04/07/2022,04:29:59,0.007,0.0,0.0,0.0
04/07/2022,04:31:07,0.007,0.0,0.001,0.001
04/07/2022,04:32:00,0.007,0.0,0.001,0.0
04/07/2022,04:32:59,0.007,0.0,0.001,0.0
04/07/2022,04:34:00,0.006,0.0,0.001,0.0
04/07/2022,04:34:59,0.008,0.0,0.001,0.0
04/07/2022,04:35:59,0.008,0.0,0.001,0.0
04/07/2022,04:37:00,0.009,0.0,0.001,0.0
04/07/2022,04:37:59,0.009,0.0,0.001,0.0
04/07/2022,04:39:00,0.009,0.0,0.002,0.001
04/07/2022,04:40:00,0.010,0.0,0.002,0.0
04/07/2022,04:41:07,0.011,0.0,0.002,0.0
04/07/2022,04:42:06,0.011,0.0,0.002,0.0
04/07/2022,04:42:59,0.012,0.0,0.002,0.0
04/07/2022,04:44:01,0.012,0.0,0.002,0.0
04/07/2022,04:44:59,0.014,0.0,0.003,0.001
04/07/2022,04:46:00,0.013,0.0,0.003,0.0
04/07/2022,04:46:59,0.015,0.0,0.003,0.0
04/07/2022,04:48:00,0.015,0.0,0.003,0.0
04/07/2022,04:48:59,0.016,0.0,0.004,0.001
04/07/2022,04:50:00,0.016,0.0,0.004,0.0
04/07/2022,04:51:00,0.018,0.0,0.004,0.0
04/07/2022,04:51:59,0.018,0.0,0.005,0.001
04/07/2022,04:52:59,0.018,0.0,0.005,0.0
04/07/2022,04:54:08,0.019,0.0,0.005,0.0
04/07/2022,04:55:00,0.020,0.0,0.005,0.0
04/07/2022,04:56:00,0.021,0.0,0.006,0.001
04/07/2022,04:57:01,0.022,0.0,0.006,0.0
04/07/2022,04:57:59,0.022,0.0,0.007,0.001
04/07/2022,04:58:59,0.023,0.0,0.007,0.0
04/07/2022,04:59:59,0.023,0.0,0.007,0.0
04/07/2022,05:01:00,0.024,0.0,0.008,0.001
04/07/2022,05:01:59,0.025,0.0,0.008,0.0
04/07/2022,05:03:00,0.027,0.0,0.009,0.001
04/07/2022,05:04:00,0.026,0.0,0.009,0.0
04/07/2022,05:04:59,0.027,0.0,0.009,0.0
04/07/2022,05:06:00,0.028,0.0,0.01,0.001
04/07/2022,05:07:08,0.029,0.0,0.01,0.0
04/07/2022,05:08:01,0.030,0.0,0.011,0.001
04/07/2022,05:09:00,0.031,0.0,0.011,0.0
04/07/2022,05:10:00,0.031,0.0,0.012,0.001
04/07/2022,05:11:00,0.032,0.0,0.012,0.0
04/07/2022,05:12:00,0.034,0.0,0.013,0.001
04/07/2022,05:13:00,0.034,0.0,0.013,0.0
04/07/2022,05:13:59,0.035,0.0,0.014,0.001
04/07/2022,05:14:59,0.036,0.0,0.015,0.001
04/07/2022,05:16:00,0.037,0.0,0.015,0.0
04/07/2022,05:17:08,0.037,0.0,0.016,0.001
04/07/2022,05:17:59,0.040,0.0,0.017,0.001
04/07/2022,05:18:59,0.040,0.0,0.017,0.0
04/07/2022,05:20:00,0.042,0.0,0.018,0.001
04/07/2022,05:21:00,0.043,0.0,0.019,0.001
04/07/2022,05:22:00,0.043,0.0,0.019,0.0
04/07/2022,05:23:00,0.045,0.0,0.02,0.001
04/07/2022,05:24:00,0.046,0.0,0.021,0.001
04/07/2022,05:25:00,0.048,0.0,0.022,0.001
04/07/2022,05:25:59,0.048,0.0,0.022,0.0
04/07/2022,05:27:00,0.049,0.0,0.023,0.001
04/07/2022,05:27:59,0.051,0.0,0.024,0.001
04/07/2022,05:28:59,0.052,0.0,0.025,0.001
04/07/2022,05:30:08,0.054,0.0,0.026,0.001
04/07/2022,05:31:00,0.054,0.0,0.027,0.001
04/07/2022,05:31:59,0.056,0.0,0.028,0.001
04/07/2022,05:33:00,0.057,0.0,0.029,0.001
04/07/2022,05:33:50,0.058,0.0,0.029,0.0
04/07/2022,05:35:00,0.060,0.0,0.03,0.001
04/07/2022,05:35:59,0.061,0.0,0.031,0.001
04/07/2022,05:37:00,0.063,0.0,0.033,0.002
04/07/2022,05:38:00,0.064,0.0,0.034,0.001
04/07/2022,05:39:00,0.066,0.0,0.035,0.001
04/07/2022,05:39:59,0.067,0.0,0.036,0.001
04/07/2022,05:41:08,0.069,0.0,0.037,0.001
04/07/2022,05:42:00,0.070,0.0,0.038,0.001
04/07/2022,05:43:08,0.072,0.0,0.039,0.001
04/07/2022,05:44:00,0.074,0.0,0.04,0.001
04/07/2022,05:44:59,0.075,0.0,0.042,0.002
04/07/2022,05:45:59,0.076,0.0,0.043,0.001
04/07/2022,05:47:00,0.079,0.0,0.044,0.001
04/07/2022,05:47:59,0.080,0.0,0.046,0.002
04/07/2022,05:48:59,0.083,0.0,0.047,0.001
04/07/2022,05:49:59,0.084,0.0,0.048,0.001
04/07/2022,05:51:00,0.086,0.0,0.05,0.002
04/07/2022,05:51:59,0.088,0.0,0.051,0.001
04/07/2022,05:53:07,0.090,0.0,0.053,0.002
04/07/2022,05:54:00,0.093,0.0,0.054,0.001
04/07/2022,05:55:00,0.094,0.0,0.056,0.002
04/07/2022,05:56:00,0.096,0.0,0.057,0.001
04/07/2022,05:57:07,0.098,0.0,0.059,0.002
04/07/2022,05:57:59,0.099,0.0,0.061,0.002
04/07/2022,05:58:59,0.101,0.0,0.062,0.001
04/07/2022,05:59:59,0.104,0.0,0.064,0.002
04/07/2022,06:01:00,0.106,0.0,0.066,0.002
04/07/2022,06:01:59,0.107,0.0,0.068,0.002
04/07/2022,06:02:59,0.111,0.0,0.069,0.001
04/07/2022,06:03:59,0.113,0.0,0.071,0.002
04/07/2022,06:04:59,0.115,0.0,0.073,0.002
04/07/2022,06:06:00,0.119,0.0,0.075,0.002
04/07/2022,06:07:00,0.120,0.0,0.077,0.002
04/07/2022,06:07:59,0.123,0.0,0.079,0.002
04/07/2022,06:09:00,0.125,0.0,0.081,0.002
04/07/2022,06:10:00,0.129,0.0,0.083,0.002
04/07/2022,06:10:59,0.131,0.0,0.085,0.002
04/07/2022,06:11:59,0.133,0.0,0.088,0.003
04/07/2022,06:13:00,0.137,0.0,0.09,0.002
04/07/2022,06:13:59,0.139,0.0,0.092,0.002
04/07/2022,06:15:02,0.142,0.0,0.095,0.003
04/07/2022,06:16:00,0.143,0.0,0.097,0.002
04/07/2022,06:17:09,0.147,0.0,0.1,0.003
04/07/2022,06:18:00,0.150,0.0,0.102,0.002
04/07/2022,06:18:59,0.154,0.0,0.104,0.002
04/07/2022,06:19:59,0.157,0.0,0.107,0.003
04/07/2022,06:21:00,0.160,0.0,0.11,0.003
04/07/2022,06:21:59,0.164,0.0,0.112,0.002
04/07/2022,06:22:59,0.167,0.0,0.115,0.003
04/07/2022,06:24:00,0.171,0.0,0.118,0.003
04/07/2022,06:25:00,0.175,0.0,0.121,0.003
04/07/2022,06:26:00,0.173,0.0,0.124,0.003
04/07/2022,06:26:59,0.180,0.0,0.127,0.003
04/07/2022,06:28:00,0.166,0.0,0.129,0.002
04/07/2022,06:29:00,0.166,0.0,0.132,0.003
04/07/2022,06:29:59,0.167,0.0,0.135,0.003
04/07/2022,06:31:00,0.169,0.0,0.138,0.003
04/07/2022,06:31:59,0.174,0.0,0.141,0.003
04/07/2022,06:33:08,0.177,0.0,0.144,0.003
04/07/2022,06:34:00,0.177,0.0,0.147,0.003
04/07/2022,06:34:59,0.182,0.0,0.15,0.003
04/07/2022,06:35:59,0.190,0.0,0.153,0.003
04/07/2022,06:37:00,0.193,0.0,0.156,0.003
04/07/2022,06:38:00,0.200,0.0,0.159,0.003
04/07/2022,06:39:00,0.207,0.0,0.163,0.004
04/07/2022,06:40:00,0.217,0.0,0.166,0.003
04/07/2022,06:40:59,0.231,1.0,0.17,0.004
04/07/2022,06:42:00,0.239,1.0,0.174,0.004
04/07/2022,06:43:08,0.245,1.0,0.178,0.004
04/07/2022,06:43:59,0.248,1.0,0.182,0.004
04/07/2022,06:44:59,0.249,1.0,0.186,0.004
04/07/2022,06:46:08,0.255,1.0,0.191,0.005
04/07/2022,06:46:59,0.243,1.0,0.194,0.003
04/07/2022,06:48:00,0.248,1.0,0.199,0.005
04/07/2022,06:49:01,0.274,1.0,0.203,0.004
04/07/2022,06:50:00,0.281,1.0,0.208,0.005
04/07/2022,06:50:59,0.293,1.0,0.212,0.004
04/07/2022,06:51:59,0.297,1.0,0.217,0.005
04/07/2022,06:53:00,0.287,1.0,0.222,0.005
04/07/2022,06:53:59,0.271,1.0,0.227,0.005
04/07/2022,06:55:00,0.275,1.0,0.232,0.005
04/07/2022,06:56:08,0.269,1.0,0.237,0.005
04/07/2022,06:56:59,0.265,1.0,0.241,0.004
04/07/2022,06:58:00,0.270,1.0,0.245,0.004
04/07/2022,06:58:59,0.306,1.0,0.25,0.005
04/07/2022,07:00:00,0.281,1.0,0.255,0.005
04/07/2022,07:01:00,0.292,1.0,0.259,0.004
04/07/2022,07:02:08,0.278,1.0,0.265,0.006
04/07/2022,07:03:00,0.289,1.0,0.269,0.004
04/07/2022,07:03:59,0.290,1.0,0.274,0.005
04/07/2022,07:05:07,0.289,1.0,0.279,0.005
04/07/2022,07:06:00,0.291,1.0,0.283,0.004
04/07/2022,07:07:00,0.325,1.0,0.288,0.005
04/07/2022,07:07:59,0.288,1.0,0.293,0.005
04/07/2022,07:08:59,0.331,1.0,0.298,0.005
04/07/2022,07:09:59,0.299,1.0,0.304,0.006
04/07/2022,07:10:59,0.295,1.0,0.308,0.004
04/07/2022,07:12:08,0.300,1.0,0.314,0.006
04/07/2022,07:13:08,0.311,1.0,0.319,0.005
04/07/2022,07:13:59,0.319,1.0,0.324,0.005
04/07/2022,07:14:59,0.342,1.0,0.33,0.006
04/07/2022,07:15:59,0.345,1.0,0.336,0.006
04/07/2022,07:16:59,0.387,1.0,0.342,0.006
04/07/2022,07:18:00,0.409,1.0,0.348,0.006
04/07/2022,07:18:59,0.398,1.0,0.354,0.006
04/07/2022,07:19:59,0.417,1.0,0.361,0.007
04/07/2022,07:20:59,0.423,1.0,0.367,0.006
04/07/2022,07:22:08,0.429,1.0,0.375,0.008
04/07/2022,07:23:00,0.434,1.0,0.381,0.006
04/07/2022,07:24:00,0.404,1.0,0.388,0.007
04/07/2022,07:25:00,0.372,1.0,0.395,0.007
04/07/2022,07:26:00,0.370,1.0,0.401,0.006
04/07/2022,07:27:00,0.361,1.0,0.407,0.006
04/07/2022,07:27:59,0.382,1.0,0.413,0.006
04/07/2022,07:29:00,0.486,1.0,0.42,0.007
04/07/2022,07:30:00,0.408,1.0,0.427,0.007
04/07/2022,07:30:59,0.389,1.0,0.434,0.007
04/07/2022,07:31:59,0.389,1.0,0.44,0.006
04/07/2022,07:33:00,0.395,1.0,0.447,0.007
04/07/2022,07:33:59,0.408,1.0,0.453,0.006
04/07/2022,07:34:59,0.411,1.0,0.46,0.007
04/07/2022,07:35:59,0.428,1.0,0.467,0.007
04/07/2022,07:37:00,0.420,1.0,0.474,0.007
04/07/2022,07:38:00,0.447,1.0,0.481,0.007
04/07/2022,07:38:59,0.487,1.0,0.489,0.008
04/07/2022,07:40:00,0.450,1.0,0.497,0.008
04/07/2022,07:41:00,0.446,1.0,0.504,0.007
04/07/2022,07:42:00,0.492,1.0,0.512,0.008
04/07/2022,07:43:00,0.512,1.0,0.52,0.008
04/07/2022,07:44:00,0.485,1.0,0.529,0.009
04/07/2022,07:45:00,0.439,1.0,0.537,0.008
04/07/2022,07:46:00,0.461,1.0,0.544,0.007
04/07/2022,07:47:00,0.458,1.0,0.553,0.009
04/07/2022,07:47:59,0.465,1.0,0.56,0.007
04/07/2022,07:49:00,0.480,1.0,0.568,0.008
04/07/2022,07:50:00,0.594,1.0,0.577,0.009
04/07/2022,07:50:59,0.585,1.0,0.586,0.009
04/07/2022,07:52:00,0.464,1.0,0.595,0.009
04/07/2022,07:53:00,0.525,1.0,0.603,0.008
04/07/2022,07:54:00,0.467,1.0,0.612,0.009
04/07/2022,07:55:00,0.496,1.0,0.62,0.008
04/07/2022,07:55:59,0.523,1.0,0.629,0.009
04/07/2022,07:57:00,0.598,1.0,0.638,0.009
04/07/2022,07:57:59,0.538,1.0,0.648,0.01
04/07/2022,07:59:08,0.671,2.0,0.661,0.013
04/07/2022,08:00:00,0.601,1.0,0.67,0.009
04/07/2022,08:01:00,0.494,1.0,0.678,0.008
04/07/2022,08:02:00,0.531,1.0,0.687,0.009
04/07/2022,08:03:00,0.520,1.0,0.696,0.009
04/07/2022,08:04:00,0.532,1.0,0.705,0.009
04/07/2022,08:05:00,0.604,1.0,0.715,0.01
04/07/2022,08:06:00,0.609,1.0,0.725,0.01
04/07/2022,08:07:00,0.585,1.0,0.736,0.011
04/07/2022,08:07:59,0.736,2.0,0.746,0.01
04/07/2022,08:08:59,0.584,1.0,0.758,0.012
04/07/2022,08:10:00,0.785,2.0,0.77,0.012
04/07/2022,08:11:00,0.789,2.0,0.783,0.013
04/07/2022,08:12:00,0.718,2.0,0.795,0.012
04/07/2022,08:13:15,0.766,2.0,0.81,0.015
04/07/2022,08:15:09,0.745,2.0,0.832,0.022
04/07/2022,08:16:00,0.816,2.0,0.843,0.011
04/07/2022,08:17:00,0.764,2.0,0.856,0.013
04/07/2022,08:18:00,0.740,2.0,0.868,0.012
04/07/2022,08:19:00,0.843,2.0,0.881,0.013
04/07/2022,08:20:00,0.868,2.0,0.895,0.014
04/07/2022,08:21:00,0.675,2.0,0.908,0.013
04/07/2022,08:21:59,0.860,2.0,0.922,0.014
04/07/2022,08:22:59,0.742,2.0,0.936,0.014
04/07/2022,08:24:00,0.678,2.0,0.949,0.013
04/07/2022,08:25:08,0.752,2.0,0.963,0.014
04/07/2022,08:25:59,0.828,2.0,0.975,0.012
04/07/2022,08:26:59,0.925,2.0,0.99,0.015
04/07/2022,08:28:08,0.937,2.0,1.007,0.017
04/07/2022,08:29:00,0.905,2.0,1.02,0.013
04/07/2022,08:29:59,0.882,2.0,1.034,0.014
04/07/2022,08:31:00,0.956,2.0,1.05,0.016
04/07/2022,08:32:00,0.960,2.0,1.066,0.016
04/07/2022,08:33:00,0.967,2.0,1.082,0.016
04/07/2022,08:34:00,0.973,2.0,1.098,0.016
04/07/2022,08:35:00,0.982,2.0,1.114,0.016
04/07/2022,08:35:59,0.997,2.0,1.131,0.017
04/07/2022,08:36:59,0.933,2.0,1.147,0.016
04/07/2022,08:38:08,1.035,2.0,1.163,0.016
04/07/2022,08:39:07,1.027,2.0,1.18,0.017
04/07/2022,08:39:59,1.061,2.0,1.195,0.015
04/07/2022,08:41:00,1.070,2.0,1.212,0.017
04/07/2022,08:42:00,0.983,2.0,1.229,0.017
04/07/2022,08:42:59,1.091,3.0,1.245,0.016
04/07/2022,08:44:08,1.115,3.0,1.266,0.021
04/07/2022,08:46:01,0.792,2.0,1.292,0.026
04/07/2022,08:47:00,0.689,2.0,1.304,0.012
04/07/2022,08:48:00,0.816,2.0,1.316,0.012
04/07/2022,08:49:00,0.611,1.0,1.327,0.011
04/07/2022,08:50:02,0.630,1.0,1.337,0.01
04/07/2022,08:51:00,0.656,2.0,1.348,0.011
04/07/2022,08:52:00,1.079,2.0,1.362,0.014
04/07/2022,08:53:00,1.119,3.0,1.381,0.019
04/07/2022,08:53:59,1.023,2.0,1.399,0.018
04/07/2022,08:55:00,1.156,3.0,1.418,0.019
04/07/2022,08:56:00,1.169,3.0,1.437,0.019
04/07/2022,08:57:00,1.190,3.0,1.457,0.02
04/07/2022,08:58:00,1.225,3.0,1.477,0.02
04/07/2022,08:59:00,1.243,3.0,1.498,0.021
04/07/2022,09:00:00,0.853,2.0,1.515,0.017
04/07/2022,09:01:00,1.256,3.0,1.535,0.02
04/07/2022,09:02:01,0.931,2.0,1.552,0.017
04/07/2022,09:03:00,1.296,3.0,1.571,0.019
04/07/2022,09:04:00,0.813,2.0,1.586,0.015
04/07/2022,09:05:00,0.754,2.0,1.6,0.014
04/07/2022,09:05:59,0.829,2.0,1.613,0.013
04/07/2022,09:07:00,1.284,3.0,1.633,0.02
04/07/2022,09:08:00,1.294,3.0,1.655,0.022
04/07/2022,09:09:00,0.809,2.0,1.673,0.018
04/07/2022,09:09:59,0.786,2.0,1.686,0.013
04/07/2022,09:11:00,0.805,2.0,1.7,0.014
04/07/2022,09:12:00,0.745,2.0,1.713,0.013
04/07/2022,09:13:00,0.747,2.0,1.726,0.013
04/07/2022,09:13:59,0.782,2.0,1.738,0.012
04/07/2022,09:15:00,1.354,3.0,1.753,0.015
04/07/2022,09:16:09,1.390,3.0,1.779,0.026
04/07/2022,09:17:00,1.278,3.0,1.799,0.02
04/07/2022,09:18:00,0.977,2.0,1.818,0.019
04/07/2022,09:19:09,1.170,3.0,1.84,0.022
04/07/2022,09:20:00,0.897,2.0,1.853,0.013
04/07/2022,09:21:00,0.875,2.0,1.868,0.015
04/07/2022,09:22:00,0.886,2.0,1.883,0.015
04/07/2022,09:23:00,0.890,2.0,1.898,0.015
04/07/2022,09:24:00,1.442,3.0,1.915,0.017
04/07/2022,09:25:00,0.980,2.0,1.937,0.022
04/07/2022,09:25:59,0.962,2.0,1.954,0.017
04/07/2022,09:26:59,1.393,3.0,1.975,0.021
04/07/2022,09:28:00,1.426,3.0,1.999,0.024
04/07/2022,09:29:09,1.454,3.0,2.026,0.027
04/07/2022,09:30:02,1.473,3.0,2.048,0.022
04/07/2022,09:31:00,1.484,3.0,2.071,0.023
04/07/2022,09:32:00,1.495,3.0,2.096,0.025
04/07/2022,09:33:00,1.514,3.0,2.121,0.025
04/07/2022,09:34:00,1.564,4.0,2.147,0.026
04/07/2022,09:35:00,1.306,3.0,2.173,0.026
04/07/2022,09:35:59,1.010,2.0,2.191,0.018
04/07/2022,09:37:00,0.942,2.0,2.208,0.017
04/07/2022,09:38:00,0.913,2.0,2.223,0.015
04/07/2022,09:39:00,0.923,2.0,2.239,0.016
04/07/2022,09:40:00,0.840,2.0,2.253,0.014
04/07/2022,09:41:00,0.822,2.0,2.267,0.014
04/07/2022,09:41:59,0.756,2.0,2.28,0.013
04/07/2022,09:43:00,0.737,2.0,2.293,0.013
04/07/2022,09:44:00,0.770,2.0,2.305,0.012
04/07/2022,09:45:16,0.894,2.0,2.322,0.017
04/07/2022,09:47:01,0.863,2.0,2.348,0.026
04/07/2022,09:48:08,0.873,2.0,2.363,0.015
04/07/2022,09:49:00,0.887,2.0,2.376,0.013
04/07/2022,09:50:00,1.186,3.0,2.392,0.016
04/07/2022,09:51:00,0.952,2.0,2.409,0.017
04/07/2022,09:52:00,1.051,2.0,2.426,0.017
04/07/2022,09:53:00,0.995,2.0,2.443,0.017
04/07/2022,09:54:00,0.981,2.0,2.459,0.016
04/07/2022,09:55:00,1.002,2.0,2.476,0.017
04/07/2022,09:55:59,1.054,2.0,2.493,0.017
04/07/2022,09:57:00,1.266,3.0,2.512,0.019
04/07/2022,09:58:00,1.450,3.0,2.534,0.022
04/07/2022,09:59:00,1.747,4.0,2.559,0.025
04/07/2022,10:00:00,1.763,4.0,2.587,0.028
04/07/2022,10:01:00,1.214,3.0,2.615,0.028
04/07/2022,10:02:00,1.739,4.0,2.639,0.024
04/07/2022,10:03:08,1.823,4.0,2.672,0.033
04/07/2022,10:03:59,1.101,3.0,2.696,0.024
04/07/2022,10:05:00,1.092,3.0,2.714,0.018
04/07/2022,10:06:00,1.214,3.0,2.733,0.019
04/07/2022,10:07:00,1.374,3.0,2.76,0.027
04/07/2022,10:08:00,1.426,3.0,2.786,0.026
04/07/2022,10:09:00,1.120,3.0,2.805,0.019
04/07/2022,10:10:01,1.117,3.0,2.824,0.019
04/07/2022,10:11:00,1.072,2.0,2.842,0.018
04/07/2022,10:11:59,1.052,2.0,2.86,0.018